Date String (YYYY-MM-DD hh:mm:ss) UTC,Instrument flags,absolute air pressure of the measurement (hPa),sample flow rate (lpm),inlet stack bypass flow (lpm),air temperature of the measurement (°C),ambient temperature measured by the external sensor (°C),aerosol sample conditioner tube jacket temperature (°C),OPC LED temperature (°C),internal box temperature (°C),relative humidity of the measurement (%),span deviation,mass concentration of particles derived from Lorenz-Mie calculation of OPC scattering (μg/m³),mass concentration of particles derived from Lorenz-Mie calculation of OPC scattering (μg/m³),mass concentration of particles derived from Lorenz-Mie calculation of OPC scattering (μg/m³)
DateTimeUTC,F1_M11,P_M11,Q1_M11,Q2_M11,T1_M11,T2_M11,T3_M11,T4_M11,T5_M11,U1_M11,ZSPAN_M11,X0_M11,X2_M11,X1_M11
2023-07-12 21:00:00,SystemResetWarning,0831.3,5.01,000.00,028.6,025.1,000.0,036.7,030.0,23.1,0000.0,0024.25,0006.02,0004.49
2023-07-12 21:01:00,SystemResetWarning,0831.3,5.00,000.00,028.5,025.5,000.0,036.8,029.9,23.5,0000.0,0024.88,0005.99,0004.50
2023-07-12 21:02:00,SystemResetWarning,0831.3,5.00,000.00,028.5,026.0,000.0,036.8,030.0,22.5,0000.0,0025.70,0005.99,0004.49
2023-07-12 21:03:00,SystemResetWarning,0831.4,4.99,000.00,028.6,026.4,000.0,036.9,030.2,22.8,0000.0,0025.38,0006.02,0004.50
2023-07-12 21:04:00,SystemResetWarning,0831.3,5.00,000.00,028.6,026.9,000.0,036.9,030.3,22.7,0000.0,0024.64,0006.01,0004.50
2023-07-12 21:05:00,SystemResetWarning,0831.3,5.00,000.00,028.7,027.2,000.0,036.9,030.4,23.2,0000.0,0024.15,0006.06,0004.51
2023-07-12 21:06:00,SystemResetWarning,0831.3,5.00,000.00,028.7,027.5,000.0,036.9,030.5,24.1,0000.0,0025.03,0006.07,0004.52
2023-07-12 21:07:00,SystemResetWarning,0831.3,5.00,000.00,028.8,027.5,000.0,036.9,030.5,22.7,0000.0,0025.91,0006.05,0004.51
2023-07-12 21:08:00,SystemResetWarning,0831.3,4.98,000.00,028.8,025.9,000.0,036.9,030.3,22.2,0000.0,0026.44,0006.04,0004.51
2023-07-12 21:09:00,SystemResetWarning,0831.3,5.01,000.00,028.7,024.9,000.0,036.8,030.2,22.0,0000.0,0027.76,0006.09,0004.52
2023-07-12 21:10:00,SystemResetWarning,0831.3,5.02,000.00,028.6,025.2,000.0,036.8,030.1,22.7,0000.0,0028.42,0006.12,0004.51
2023-07-12 21:11:00,SystemResetWarning,0831.3,5.00,000.00,028.6,025.6,000.0,036.8,030.1,22.3,0000.0,0027.50,0006.10,0004.52
2023-07-12 21:12:00,SystemResetWarning,0831.3,5.00,000.00,028.6,026.1,000.0,036.9,030.2,22.1,0000.0,0027.79,0006.11,0004.52
2023-07-12 21:13:00,SystemResetWarning,0831.3,5.00,000.00,028.6,026.5,000.0,036.9,030.3,23.3,0000.0,0027.10,0006.12,0004.52
2023-07-12 21:14:00,SystemResetWarning,0831.3,5.00,000.00,028.7,026.9,000.0,036.9,030.4,22.3,0000.0,0027.97,0006.18,0004.52
2023-07-12 21:15:00,SystemResetWarning,0831.3,5.00,000.00,028.7,027.3,000.0,037.0,030.5,21.9,0000.0,0028.69,0006.22,0004.52
2023-07-12 21:16:00,SystemResetWarning,0831.3,4.99,000.00,028.8,027.3,000.0,037.0,030.5,21.0,0000.0,0031.25,0006.23,0004.53
2023-07-12 21:17:00,SystemResetWarning,0831.3,4.98,000.00,028.8,025.9,000.0,036.9,030.4,21.7,0000.0,0031.65,0006.29,0004.55
2023-07-12 21:18:00,SystemResetWarning,0831.3,5.01,000.00,028.7,024.8,000.0,036.8,030.1,21.7,0000.0,0030.01,0006.32,0004.56
2023-07-12 21:19:00,SystemResetWarning,0831.2,5.01,000.00,028.6,025.1,000.0,036.8,030.1,21.8,0000.0,0029.87,0006.34,0004.58
2023-07-12 21:20:00,SystemResetWarning,0831.2,4.99,000.00,028.6,025.4,000.0,036.8,030.0,22.1,0000.0,0028.53,0006.36,0004.59
2023-07-12 21:21:00,SystemResetWarning,0831.3,5.01,000.00,028.6,025.9,000.0,036.9,030.1,21.4,0000.0,0029.48,0006.40,0004.61
2023-07-12 21:22:00,SystemResetWarning,0831.2,4.99,000.00,028.6,026.4,000.0,036.9,030.2,21.4,0000.0,0030.96,0006.49,0004.63
2023-07-12 21:23:00,SystemResetWarning,0831.2,5.00,000.00,028.7,026.8,000.0,036.9,030.3,21.5,0000.0,0029.72,0006.49,0004.65
2023-07-12 21:24:00,SystemResetWarning,0831.3,4.99,000.00,028.7,027.2,000.0,037.0,030.4,21.0,0000.0,0029.18,0006.50,0004.67
2023-07-12 21:25:00,SystemResetWarning,0831.2,4.99,000.00,028.7,027.4,000.0,037.0,030.5,21.5,0000.0,0028.29,0006.44,0004.68
2023-07-12 21:26:00,SystemResetWarning,0831.2,4.99,000.00,028.8,026.9,000.0,037.0,030.5,21.6,0000.0,0027.29,0006.43,0004.70
2023-07-12 21:27:00,SystemResetWarning,0831.1,5.01,000.00,028.7,025.2,000.0,036.9,030.2,21.7,0000.0,0025.60,0006.41,0004.72
2023-07-12 21:28:00,SystemResetWarning,0831.1,5.01,000.00,028.7,024.8,000.0,036.8,030.1,22.3,0000.0,0023.64,0006.34,0004.73
2023-07-12 21:29:00,SystemResetWarning,0831.1,5.01,000.00,028.6,025.2,000.0,036.8,030.0,22.2,0000.0,0023.76,0006.34,0004.73
2023-07-12 21:30:00,SystemResetWarning,0831.1,5.00,000.00,028.6,025.6,000.0,036.9,030.0,21.2,0000.0,0023.68,0006.35,0004.74
2023-07-12 21:31:00,SystemResetWarning,0831.1,5.00,000.00,028.6,026.1,000.0,036.9,030.1,22.2,0000.0,0023.33,0006.34,0004.74
2023-07-12 21:32:00,SystemResetWarning,0831.1,4.99,000.00,028.6,026.5,000.0,036.9,030.3,22.2,0000.0,0022.22,0006.26,0004.73
2023-07-12 21:33:00,SystemResetWarning,0831.0,5.00,000.00,028.7,027.0,000.0,036.9,030.3,23.9,0000.0,0020.28,0006.18,0004.72
2023-07-12 21:34:00,SystemResetWarning,0831.1,5.01,000.00,028.7,027.3,000.0,037.0,030.4,23.8,0000.0,0019.60,0006.20,0004.73
2023-07-12 21:35:00,SystemResetWarning,0831.1,5.00,000.00,028.8,027.5,000.0,037.0,030.5,22.1,0000.0,0019.95,0006.19,0004.73
2023-07-12 21:36:00,SystemResetWarning,0831.0,4.99,000.00,028.8,026.4,000.0,036.9,030.4,20.3,0000.0,0021.45,0006.22,0004.74
2023-07-12 21:37:00,SystemResetWarning,0831.0,5.01,000.00,028.7,025.0,000.0,036.8,030.2,21.3,0000.0,0020.61,0006.19,0004.74
2023-07-12 21:38:00,SystemResetWarning,0830.9,5.01,000.00,028.7,025.1,000.0,036.8,030.1,21.1,0000.0,0020.19,0006.23,0004.75
2023-07-12 21:39:00,SystemResetWarning,0830.9,4.99,000.00,028.6,025.4,000.0,036.8,030.0,20.9,0000.0,0020.54,0006.24,0004.74
2023-07-12 21:40:00,SystemResetWarning,0830.9,5.00,000.00,028.6,025.9,000.0,036.9,030.1,21.4,0000.0,0020.61,0006.24,0004.72
2023-07-12 21:41:00,SystemResetWarning,0830.9,5.01,000.00,028.6,026.4,000.0,036.9,030.2,20.8,0000.0,0020.25,0006.21,0004.71
2023-07-12 21:42:00,SystemResetWarning,0830.9,5.00,000.00,028.7,026.8,000.0,036.9,030.3,20.8,0000.0,0020.87,0006.23,0004.72
2023-07-12 21:43:00,SystemResetWarning,0830.9,4.99,000.00,028.7,027.1,000.0,037.0,030.4,21.7,0000.0,0021.80,0006.26,0004.72
2023-07-12 21:44:00,SystemResetWarning,0830.9,5.00,000.00,028.8,027.5,000.0,037.0,030.5,20.3,0000.0,0021.70,0006.32,0004.75
2023-07-12 21:45:00,SystemResetWarning,0830.9,5.00,000.00,028.8,027.3,000.0,037.0,030.5,19.8,0000.0,0022.11,0006.32,0004.75
2023-07-12 21:46:00,SystemResetWarning,0830.9,4.99,000.00,028.8,025.6,000.0,036.9,030.3,19.9,0000.0,0022.23,0006.35,0004.75
2023-07-12 21:47:00,SystemResetWarning,0830.9,5.02,000.00,028.7,024.9,000.0,036.8,030.2,21.3,0000.0,0022.20,0006.37,0004.76
2023-07-12 21:48:00,SystemResetWarning,0830.9,5.00,000.00,028.7,025.2,000.0,036.8,030.1,21.2,0000.0,0022.87,0006.44,0004.76
2023-07-12 21:49:00,SystemResetWarning,0830.9,5.00,000.00,028.6,025.6,000.0,036.9,030.1,22.1,0000.0,0023.61,0006.43,0004.76
2023-07-12 21:50:00,SystemResetWarning,0830.9,5.00,000.00,028.6,026.1,000.0,036.9,030.2,23.7,0000.0,0023.64,0006.42,0004.76
2023-07-12 21:51:00,SystemResetWarning,0830.9,4.99,000.00,028.7,026.5,000.0,037.0,030.3,22.4,0000.0,0023.97,0006.44,0004.77
2023-07-12 21:52:00,SystemResetWarning,0830.9,5.00,000.00,028.7,027.0,000.0,037.0,030.4,18.8,0000.0,0023.57,0006.50,0004.79
2023-07-12 21:53:00,SystemResetWarning,0830.9,5.00,000.00,028.8,027.3,000.0,037.0,030.5,18.4,0000.0,0022.52,0006.47,0004.78
2023-07-12 21:54:00,SystemResetWarning,0830.9,5.00,000.00,028.8,027.2,000.0,037.0,030.5,19.6,0000.0,0021.11,0006.46,0004.78
2023-07-12 21:55:00,SystemResetWarning,0830.9,4.98,000.00,028.8,025.7,000.0,036.9,030.3,20.5,0000.0,0021.04,0006.42,0004.77
2023-07-12 21:56:00,SystemResetWarning,0830.9,5.02,000.00,028.7,024.8,000.0,036.8,030.2,20.7,0000.0,0021.12,0006.40,0004.77
2023-07-12 21:57:00,SystemResetWarning,0830.9,5.00,000.00,028.7,025.2,000.0,036.8,030.1,21.4,0000.0,0020.16,0006.31,0004.77
2023-07-12 21:58:00,SystemResetWarning,0830.9,5.00,000.00,028.6,025.6,000.0,036.9,030.1,19.7,0000.0,0019.46,0006.25,0004.76
2023-07-12 21:59:00,SystemResetWarning,0830.9,5.01,000.00,028.6,026.0,000.0,036.9,030.1,19.9,0000.0,0018.77,0006.20,0004.76
